Showing default

COSMOS 1261, 12376

Orbit data source: Space-Track

COSMOS 1261, 12376 is a payload satellite owned by PVO (CIS) in HEO that was launched on Tue, 31 Mar 1981 UTC via an MOLNIYA 8K78M launch vehicle from the Plesetsk Missile And Space Complex (PKMTR). Payload-class satellites include a variety of spacecraft equipped with specific instruments for various scientific and technological missions. These include communications satellites like Starlink; space stations such as the ISS; scientific satellites like the Hubble; Earth observation satellites from companies like Planet Labs, Umbra, and HawkEye 360; GPS; miniature CubeSats for education and research; and military/defense satellites.

Loading next visibility...
Identifier
12376, 1981-031A
Orbit
HEO
Country
Flag of CISCIS
Related business
Manufacturer
NPOL/KOMET
Mission
Spacecraft
Bus & Motor
OKO, Unknown motor
Mass
~1,250 kg wet, ~1,150 kg dry
Launch date (UTC)
1981-03-31 (45 years ago)
Launch vehicle
MOLNIYA 8K78M
Launch site
Plesetsk Missile And Space Complex (PKMTR)
Object type
Payload
Rocket body
Debris
Shape & HBR
Unknown
Radar Cross Section
Large (>1 m²)

Expand to show TLE details & history
Last TLE update: 1 day ago

TLE from 1 day ago
0 COSMOS 1261
1 12376U 81031A   26132.17787264  .00000024  00000-0  00000+0 0  9993
2 12376  68.8424  91.5586 5875483 351.5844   1.6375  2.00766760226755
Epoch: 2026-05-12T04:16Z
TLE epoch observation values (Epoch: 2026-05-12T04:16:08.196Z)
Latitude
0.00009°
Longitude
157.55982°
Altitude
4,602.578 km
Speed
7.589 km/s
True Right ascension
06h 06m 11s
True Declination
0° 00' 00"
Sunlit
Object was in daylight at epoch
Visualization orbit readout
Latitude
Unknown
Longitude
Unknown
Altitude
Unknown
Speed
Unknown
Apparent Right ascension
Unknown
Apparent Declination
Unknown
Sunlit
N/A
Visualization observer readout
Local Sidereal Time
15:25:45
Azimuth
Unknown
Elevation
Unknown
Doppler factor
Unknown
Orbital elements
Apogee altitude
35,757.76 km
Perigee altitude
4,568.946 km
Semi-major axis
26,541.49 km
Eccentricity
0.58755
Inclination
68.8424°
RAAN
91.5586°
Arg. of periapsis
351.5844°
True anomaly
7.77139°
Mean anomaly
1.6375°
Eccentric anomaly
3.96565°
Mean motion
0.50194 °/min
Orbital period
717.21 mins
BSTAR
0
Loading maneuver chart data...
Computing Atmospheric mass density...
Loading historical data...
Loading historical data...
Loading historical data...
Loading historical data...
Loading historical data...
Loading historical data...
Loading historical data...

Documentation

Showing up to 5 results
|